Location: Artagnan
(43.4030°N, 0.0760°E)
Time: 04:54:10
(UTC+00:00)

Daily predictions for brighter satellites

Satellite Brightness Start Highest point End
(mag) Time Altitude Azimuth Time Altitude Azimuth Time Altitude Azimuth
Cosmos 2344 4.5 00:33:42 10° NW 00:40:56 61° N 00:40:56 61° N
Cosmos 2360 Rocket 4.3 01:35:08 23° NE 01:35:08 23° NE 01:37:12 10° NNE
Cosmos 2219 Rocket 4.1 01:53:02 25° ENE 01:53:02 25° ENE 01:55:49 10° NE
ADEOS II 4.1 01:45:55 10° NNE 01:48:05 24° NE 01:48:05 24° NE
CZ-2D R/B 4.1 01:57:14 10° N 01:59:12 23° N 01:59:12 23° N
SL-16 R/B 4.1 02:08:10 23° N 02:08:10 23° N 02:10:34 10° N
Cosmos 2278 Rocket 4.5 02:04:25 10° N 02:08:38 21° NE 02:12:50 10° E
ATLAS 3B R/B 4.3 02:09:09 22° NNW 02:09:12 22° NNW 02:14:25 10° NNE
SL-16 R/B 4.3 02:18:17 21° NNW 02:18:17 21° NNW 02:20:17 10° NNW
USA 229 DEB 4.1 02:17:34 53° ENE 02:17:34 53° ENE 02:22:59 10° NE
USA 229 4.1 02:17:39 53° ENE 02:17:39 53° ENE 02:23:05 10° NE
COSMOS 2428 3.6 02:26:57 45° ENE 02:26:57 45° ENE 02:31:14 10° NNE
IDEFIX/ARIANE 42P 3.5 02:31:35 10° NNE 02:35:12 44° NNE 02:35:12 44° NNE
NOSS 3-1 (A) 3.7 02:39:09 57° NE 02:39:09 57° NE 02:44:04 10° NE
Cosmos 2322 Rocket 4.0 02:44:11 21° NNW 02:44:11 21° NNW 02:46:57 10° N
Cosmos 2237 Rocket 3.6 02:49:49 27° SE 02:51:20 31° ESE 02:56:16 10° NE
CZ-2C R/B 4.2 02:52:37 10° NE 02:57:06 29° E 02:59:51 18° SE
Meteor 2-21 Rocket 4.3 02:51:50 10° N 02:57:52 87° N 02:57:52 87° N
Meteor 1-25 Rocket 4.3 03:00:23 10° N 03:06:16 81° E 03:07:22 60° SSE
Cosmos 2333 Rocket 2.8 03:07:52 45° NNW 03:07:52 45° NNW 03:12:29 10° NNE
Resurs 1-4 Rocket 4.2 03:03:31 10° NNW 03:04:58 15° NNW 03:04:58 15° NNW
ATLAS 5 CENTAUR R/B 3.7 03:09:52 18° NNW 03:09:52 18° NNW 03:12:00 10° NNE
MSX 3.7 03:03:31 10° NNE 03:09:18 79° WNW 03:09:18 79° WNW
Cosmos 1782 4.1 03:11:03 39° NE 03:11:03 39° NE 03:13:50 10° NNE
Cosmos 1812 4.4 03:14:44 29° ESE 03:15:16 30° E 03:18:41 10° NNE
Cosmos 2360 Rocket 3.7 03:16:54 22° NW 03:16:54 22° NW 03:20:31 10° N
Cosmos 2180 Rocket 4.3 03:15:39 71° SW 03:16:10 76° W 03:22:23 10° N
Cosmos 1500 4.4 03:14:30 10° N 03:17:22 39° NE 03:17:22 39° NE
IRS-1C 4.0 03:13:23 10° NNE 03:18:45 86° ESE 03:19:22 71° S
ALOS 4.0 03:15:08 10° NE 03:19:14 29° E 03:23:00 11° SSE
Cosmos 1452 Rocket 3.5 03:19:36 67° NW 03:19:36 67° NW 03:24:31 10° NNE
Cosmos 1655 Rocket 3.9 03:14:10 10° N 03:20:25 85° E 03:25:30 16° S
NOSS 3-1 (C) 4.2 03:22:29 32° NW 03:22:53 32° NW 03:28:33 10° NNE
Cosmos 1340 Rocket 3.2 03:22:34 10° N 03:26:28 60° ENE 03:26:28 60° ENE
ARIANE 5 R/B 2.4 03:22:39 10° NNE 03:27:46 84° ESE 03:28:42 60° S
CZ-4C R/B 3.8 03:25:35 15° SSE 03:28:24 24° ESE 03:32:42 10° ENE
ADEOS II 3.7 03:26:15 10° NNW 03:29:01 21° NW 03:29:01 21° NW
SL-08 R/B 3.2 03:28:30 33° SSE 03:30:32 80° ENE 03:35:10 10° NNW
Cosmos 1331 Rocket 4.0 03:31:59 49° S 03:33:22 76° ESE 03:38:33 10° NNE
Cosmos 2279 Rocket 4.3 03:34:10 43° WNW 03:34:10 43° WNW 03:40:04 10° N
Cosmos 2219 Rocket 2.9 03:34:46 36° NW 03:34:46 36° NW 03:39:51 10° N
FENGYUN 3A 4.4 03:30:47 10° NNE 03:36:02 51° E 03:41:00 11° S
Cosmos 1666 Rocket 3.5 03:34:05 10° N 03:38:25 78° E 03:40:36 29° SSE
Meteor 1-20 Rocket 4.4 03:35:35 10° NNW 03:40:20 46° WNW 03:40:20 46° WNW
Cosmos 1328 Rocket 4.0 03:39:10 28° SSE 03:41:16 59° E 03:45:31 10° NNE
Meteor 2-15 Rocket 4.4 03:39:18 19° S 03:43:45 83° E 03:49:52 10° N
Cosmos 2266 Rocket 3.8 03:40:20 10° NNW 03:46:26 67° W 03:52:24 10° S
Cosmos 2278 Rocket 2.1 03:47:38 10° NNW 03:53:18 71° WSW 03:58:56 10° SSE
NOSS 2-2 (D) 3.0 03:55:52 63° NW 03:55:52 63° NW 03:59:19 10° NNE
Cosmos 44 3.5 03:54:26 43° WSW 03:56:08 66° NW 04:01:32 10° NNE
NOSS 0 Rocket 4.0 03:55:14 36° SW 03:57:47 63° WNW 04:03:58 10° NNE
SL-16 R/B 3.5 03:53:40 10° S 03:58:49 38° ESE 04:04:00 10° NE
IRS-P3 4.5 03:54:19 10° N 03:59:22 44° WNW 04:00:41 37° WSW
Spot 4 Rocket 3.9 03:54:48 10° NNE 03:59:58 86° WNW 04:03:44 19° SSW
Cosmos 1943 Rocket 4.0 03:55:34 10° N 04:00:37 32° NE 04:05:39 10° ESE
Meteor 1-5 Rocket 4.1 03:55:43 10° N 04:01:04 83° E 04:06:22 10° SSE
Cosmos 1666 2.6 03:57:32 10° N 04:01:20 82° E 04:05:07 10° S
Cosmos 1151 Rocket 3.1 04:02:58 42° SW 04:04:06 56° W 04:08:24 10° N
GPS 2-04 Rocket1 4.3 04:06:00 20° S 04:06:40 21° SSE 04:09:44 10° ESE
Cosmos 968 Rocket 4.4 04:02:30 10° N 04:07:38 51° ENE 04:12:42 10° SE
CZ-2D R/B 3.8 04:04:08 10° N 04:08:21 48° WNW 04:09:28 38° WSW
COSMOS 2428 3.8 04:08:59 24° WNW 04:10:17 26° NW 04:15:02 10° N
NOSS 2-2 (E) 3.9 04:12:26 32° NW 04:12:42 32° NW 04:16:04 10° NNE
IDEFIX/ARIANE 42P 4.2 04:12:42 10° NNW 04:15:49 16° WNW 04:16:00 16° WNW
X-37B 3.0 04:18:17 13° S 04:19:51 17° SE 04:22:01 10° ESE
Cosmos 2285 Rocket 4.1 04:16:42 21° SW 04:20:56 56° WNW 04:27:09 10° NNE
Cosmos 1633 Rocket 3.4 04:18:02 10° NNW 04:22:14 42° W 04:26:23 10° SSW
MOS 1 Rocket 3.5 04:19:13 10° SSW 04:23:35 40° W 04:27:46 10° NNW
Cosmos 1536 4.3 04:21:13 10° N 04:24:58 39° ENE 04:28:41 10° SSE
Cosmos 1980 4.1 04:22:15 24° WSW 04:25:21 45° WNW 04:30:48 10° NNE
CZ-4B R/B 4.0 04:23:06 10° N 04:27:52 40° WNW 04:31:14 18° SW
Cosmos 1515 Rocket 3.4 04:24:53 10° SSW 04:29:12 76° W 04:33:33 10° N
PAYLOAD A 4.4 04:26:51 10° N 04:31:07 36° WNW 04:33:56 19° SW
Cosmos 2237 Rocket 2.7 04:31:41 20° WSW 04:35:14 41° WNW 04:40:37 10° NNE
CZ-2C R/B 3.1 04:30:34 10° N 04:35:20 38° WNW 04:39:13 14° SW
Meteor 1-27 Rocket 4.1 04:35:33 10° S 04:41:21 74° E 04:47:17 10° NNE
BREEZE M DEB (TANK) 3.8 04:42:12 10° SSW 04:42:12 10° SSW 04:42:19 10° SSW
METEOR-M 4.2 04:41:57 10° N 04:47:13 60° WNW 04:52:28 10° SSW
S3M 4.4 04:41:50 10° S 04:48:08 69° E 04:54:25 10° NNE
Cosmos 1812 4.2 04:49:49 16° W 04:51:05 18° WNW 04:53:50 10° NNW
Aureole 1 Rocket 3.7 04:47:11 10° NW 04:51:13 29° W 04:54:28 10° SSW
Cosmos 2333 Rocket 4.3 04:52:07 10° NW 04:52:43 10° NW 04:53:20 10° NNW
Envisat 4.1 04:48:30 10° NNE 04:53:26 48° E 04:58:19 10° S
CZ-2C R/B 3.7 04:51:00 10° N 04:54:27 29° WNW 04:57:51 10° SW
BREEZE-M DEB (TANK) 4.3 04:51:12 10° SSW 04:55:20 21° SSE 04:57:36 10° ESE
ALOS 3.1 04:52:31 10° N 04:56:34 30° WNW 05:00:36 10° SW
CENTAUR R/B 4.1 04:49:40 10° NNW 04:57:34 53° NE 05:06:14 10° ESE
Gbstr 26 Del rocket 4.3 04:54:21 10° WNW 05:01:47 56° SW 05:08:00 10° SSE
CZ-2C R/B 3.6 04:58:43 10° SE 05:03:43 51° ENE 05:08:49 10° N
BREEZE-M DEB (TANK) 3.7 05:01:28 10° WNW 05:04:07 20° NNW 05:06:13 10° NE
GENESIS II 4.5 05:00:56 10° NW 05:04:41 45° WSW 05:08:26 10° SSE
SKYMED 2 4.0 05:00:47 10° SSE 05:05:05 70° ENE 05:09:26 10° N
Cosmos 1515 4.0 05:02:19 10° S 05:06:05 70° E 05:09:54 10° NNE
ARIANE 5 R/B 4.3 05:03:37 10° NNW 05:06:08 14° WNW 05:08:38 10° W
YAOGAN 6 3.0 05:03:21 10° NNE 05:06:52 65° ESE 05:10:19 10° S
SJ 16-02 4.3 05:06:59 10° NNE 05:10:02 18° ENE 05:13:04 10° ESE
Cosmos 1743 2.7 05:08:18 10° N 05:12:13 90° SE 05:16:05 10° S
Cosmos 1869 Rocket 3.5 05:08:35 10° N 05:12:59 77° W 05:17:25 10° S
NOSS 3-2 (A) 4.4 05:05:46 10° NW 05:13:20 73° NE 05:21:56 10° SE
Cosmos 1484 Rocket 3.8 05:10:24 10° NNW 05:13:30 25° WNW 05:16:35 10° SW
Cosmos 1933 Rocket 4.3 05:09:57 10° NNW 05:13:53 32° W 05:17:49 10° SSW
Meteor 2-17 Rocket 4.4 05:09:18 10° NNW 05:15:26 71° W 05:21:31 10° S
CZ-4C R/B 2.4 05:11:39 10° WSW 05:16:22 48° NW 05:22:05 10° NNE
Cosmos 1386 Rocket 4.5 05:14:39 10° NNW 05:20:40 67° W 05:26:44 10° S
Okean 1 3.8 05:17:06 10° S 05:20:59 67° E 05:24:56 10° NNE
Cosmos 1745 Rocket 4.0 05:16:00 10° NNW 05:22:06 65° W 05:28:08 10° S
